Time,TemperatureF,DewpointF,PressureIn,WindDirection,WindDirectionDegrees,WindSpeedMPH,WindSpeedGustMPH,Humidity,HourlyPrecipIn,Conditions,Clouds,dailyrainin,SoftwareType,DateUTC
2013-02-06 00:00:00,59.6,50.9,30.06,SW,223,0.0,1.0,73,0.00,,,0.00,Weather View 32 v70,2013-02-06 05:00:00,
2013-02-06 00:10:00,59.3,50.6,30.05,SW,223,0.0,0.0,73,0.00,,,0.00,Weather View 32 v70,2013-02-06 05:10:00,
2013-02-06 00:20:00,59.0,50.7,30.05,SW,223,0.0,0.0,74,0.00,,,0.00,Weather View 32 v70,2013-02-06 05:20:00,
2013-02-06 00:30:00,58.7,50.8,30.05,SW,223,0.0,0.0,75,0.00,,,0.00,Weather View 32 v70,2013-02-06 05:30:00,
2013-02-06 00:40:00,58.4,50.8,30.06,SW,223,0.0,0.0,76,0.00,,,0.00,Weather View 32 v70,2013-02-06 05:40:00,
2013-02-06 00:46:00,58.4,50.8,30.06,SW,223,0.0,0.0,76,0.00,,,0.00,Weather View 32 v70,2013-02-06 05:46:00,
2013-02-06 01:00:00,57.9,51.1,30.05,SW,223,0.0,0.0,78,0.00,,,0.00,Weather View 32 v70,2013-02-06 06:00:00,
2013-02-06 01:10:00,57.8,51.3,30.05,SW,223,0.0,0.0,79,0.00,,,0.00,Weather View 32 v70,2013-02-06 06:10:00,
2013-02-06 01:20:00,57.7,51.2,30.06,SW,223,0.0,1.0,79,0.00,,,0.00,Weather View 32 v70,2013-02-06 06:20:00,
2013-02-06 01:30:00,57.6,51.8,30.06,SW,223,0.0,1.0,81,0.00,,,0.00,Weather View 32 v70,2013-02-06 06:30:00,
2013-02-06 01:40:00,57.5,52.4,30.06,West,261,1.0,2.0,83,0.00,,,0.00,Weather View 32 v70,2013-02-06 06:40:00,
2013-02-06 01:47:00,57.5,52.4,30.06,West,261,1.0,2.0,83,0.00,,,0.00,Weather View 32 v70,2013-02-06 06:47:00,
2013-02-06 01:50:00,57.2,52.4,30.06,West,261,0.0,2.0,84,0.00,,,0.00,Weather View 32 v70,2013-02-06 06:50:00,
2013-02-06 02:00:00,56.9,52.7,30.06,West,261,0.0,2.0,86,0.00,,,0.00,Weather View 32 v70,2013-02-06 07:00:00,
2013-02-06 02:10:00,56.7,52.9,30.06,West,261,0.0,2.0,87,0.00,,,0.00,Weather View 32 v70,2013-02-06 07:10:00,
2013-02-06 02:20:00,56.6,53.1,30.05,West,261,0.0,2.0,88,0.00,,,0.00,Weather View 32 v70,2013-02-06 07:20:00,
2013-02-06 02:30:00,56.5,53.0,30.05,West,261,1.0,2.0,88,0.00,,,0.00,Weather View 32 v70,2013-02-06 07:30:00,
2013-02-06 02:40:00,56.4,53.2,30.05,West,261,0.0,1.0,89,0.00,,,0.00,Weather View 32 v70,2013-02-06 07:40:00,
2013-02-06 02:48:00,56.4,53.2,30.05,West,261,0.0,1.0,89,0.00,,,0.00,Weather View 32 v70,2013-02-06 07:48:00,
2013-02-06 02:50:00,56.4,53.2,30.05,West,261,0.0,1.0,89,0.00,,,0.00,Weather View 32 v70,2013-02-06 07:50:00,
2013-02-06 03:00:00,56.4,53.5,30.05,West,261,0.0,1.0,90,0.00,,,0.00,Weather View 32 v70,2013-02-06 08:00:00,
2013-02-06 03:10:00,56.3,53.4,30.05,West,261,0.0,1.0,90,0.00,,,0.00,Weather View 32 v70,2013-02-06 08:10:00,
2013-02-06 03:20:00,56.2,53.3,30.05,West,261,0.0,1.0,90,0.00,,,0.00,Weather View 32 v70,2013-02-06 08:20:00,
2013-02-06 03:30:00,56.2,53.3,30.05,West,261,0.0,1.0,90,0.00,,,0.00,Weather View 32 v70,2013-02-06 08:30:00,
2013-02-06 03:40:00,56.2,53.3,30.05,West,261,0.0,1.0,90,0.00,,,0.00,Weather View 32 v70,2013-02-06 08:40:00,
2013-02-06 03:48:00,56.2,53.3,30.05,West,261,0.0,1.0,90,0.00,,,0.00,Weather View 32 v70,2013-02-06 08:48:00,
2013-02-06 03:50:00,56.3,53.4,30.05,West,261,0.0,1.0,90,0.00,,,0.00,Weather View 32 v70,2013-02-06 08:50:00,
2013-02-06 04:00:00,56.4,53.2,30.05,West,261,0.0,1.0,89,0.00,,,0.00,Weather View 32 v70,2013-02-06 09:00:00,
2013-02-06 04:10:00,56.5,53.3,30.05,West,261,0.0,1.0,89,0.00,,,0.00,Weather View 32 v70,2013-02-06 09:10:00,
2013-02-06 04:20:00,56.6,53.4,30.06,West,261,0.0,1.0,89,0.00,,,0.00,Weather View 32 v70,2013-02-06 09:20:00,
2013-02-06 04:30:00,56.6,53.4,30.05,West,261,0.0,1.0,89,0.00,,,0.00,Weather View 32 v70,2013-02-06 09:30:00,
2013-02-06 04:40:00,56.6,53.4,30.06,West,261,0.0,1.0,89,0.00,,,0.00,Weather View 32 v70,2013-02-06 09:40:00,
2013-02-06 04:49:00,56.6,53.4,30.06,West,261,0.0,1.0,89,0.00,,,0.00,Weather View 32 v70,2013-02-06 09:49:00,
2013-02-06 04:50:00,56.6,53.7,30.06,West,261,0.0,1.0,90,0.01,,,0.01,Weather View 32 v70,2013-02-06 09:50:00,
2013-02-06 05:00:00,56.6,53.7,30.06,NNW,336,0.0,2.0,90,0.01,,,0.01,Weather View 32 v70,2013-02-06 10:00:00,
2013-02-06 05:10:00,56.5,53.9,30.06,NNW,336,0.0,2.0,91,0.01,,,0.01,Weather View 32 v70,2013-02-06 10:10:00,
2013-02-06 05:20:00,56.3,53.7,30.07,NNW,346,1.0,2.0,91,0.01,,,0.01,Weather View 32 v70,2013-02-06 10:20:00,
2013-02-06 05:30:00,56.2,53.9,30.07,North,5,1.0,2.0,92,0.02,,,0.02,Weather View 32 v70,2013-02-06 10:30:00,
2013-02-06 05:40:00,56.0,53.7,30.06,North,5,0.0,2.0,92,0.02,,,0.02,Weather View 32 v70,2013-02-06 10:40:00,
2013-02-06 05:49:00,56.0,53.7,30.06,North,5,0.0,2.0,92,0.02,,,0.02,Weather View 32 v70,2013-02-06 10:49:00,
2013-02-06 05:50:00,56.0,53.7,30.07,North,5,0.0,2.0,92,0.01,,,0.02,Weather View 32 v70,2013-02-06 10:50:00,
2013-02-06 06:00:00,55.9,53.9,30.07,North,5,0.0,2.0,93,0.01,,,0.02,Weather View 32 v70,2013-02-06 11:00:00,
2013-02-06 06:10:00,55.9,53.9,30.08,North,5,0.0,2.0,93,0.01,,,0.02,Weather View 32 v70,2013-02-06 11:10:00,
2013-02-06 06:20:00,55.9,53.9,30.08,North,5,0.0,2.0,93,0.01,,,0.02,Weather View 32 v70,2013-02-06 11:20:00,
2013-02-06 06:30:00,56.0,54.0,30.08,North,5,0.0,2.0,93,0.00,,,0.02,Weather View 32 v70,2013-02-06 11:30:00,
2013-02-06 06:40:00,56.0,54.0,30.08,North,5,0.0,1.0,93,0.00,,,0.02,Weather View 32 v70,2013-02-06 11:40:00,
2013-02-06 06:50:00,56.1,54.1,30.08,North,5,0.0,1.0,93,0.00,,,0.02,Weather View 32 v70,2013-02-06 11:50:00,
2013-02-06 07:00:00,56.2,54.5,30.09,North,5,0.0,0.0,94,0.00,,,0.02,Weather View 32 v70,2013-02-06 12:00:00,
2013-02-06 07:10:00,56.2,54.5,30.09,North,5,0.0,0.0,94,0.00,,,0.02,Weather View 32 v70,2013-02-06 12:10:00,
2013-02-06 07:20:00,56.3,54.6,30.09,North,5,0.0,0.0,94,0.00,,,0.02,Weather View 32 v70,2013-02-06 12:20:00,
2013-02-06 07:30:00,56.5,54.8,30.09,North,5,0.0,1.0,94,0.00,,,0.02,Weather View 32 v70,2013-02-06 12:30:00,
2013-02-06 07:40:00,56.6,54.9,30.10,North,5,0.0,1.0,94,0.00,,,0.02,Weather View 32 v70,2013-02-06 12:40:00,
2013-02-06 07:50:00,56.8,55.1,30.10,North,5,0.0,1.0,94,0.00,,,0.02,Weather View 32 v70,2013-02-06 12:50:00,
2013-02-06 08:00:00,56.9,55.2,30.10,North,5,0.0,1.0,94,0.00,,,0.02,Weather View 32 v70,2013-02-06 13:00:00,
2013-02-06 08:10:00,57.0,55.3,30.10,North,5,0.0,1.0,94,0.00,,,0.02,Weather View 32 v70,2013-02-06 13:10:00,
2013-02-06 08:20:00,57.1,55.4,30.11,North,5,0.0,1.0,94,0.00,,,0.02,Weather View 32 v70,2013-02-06 13:20:00,
2013-02-06 08:30:00,57.3,55.6,30.11,North,5,0.0,0.0,94,0.00,,,0.02,Weather View 32 v70,2013-02-06 13:30:00,
2013-02-06 08:40:00,57.4,55.7,30.12,North,5,0.0,0.0,94,0.00,,,0.02,Weather View 32 v70,2013-02-06 13:40:00,
2013-02-06 08:50:00,57.5,56.1,30.12,North,5,0.0,1.0,95,0.00,,,0.02,Weather View 32 v70,2013-02-06 13:50:00,
2013-02-06 08:51:00,57.5,56.1,30.12,North,5,0.0,1.0,95,0.00,,,0.02,Weather View 32 v70,2013-02-06 13:51:00,
2013-02-06 09:00:00,57.7,56.0,30.12,West,261,1.0,3.0,94,0.00,,,0.02,Weather View 32 v70,2013-02-06 14:00:00,
2013-02-06 09:10:00,57.8,56.1,30.13,West,261,1.0,3.0,94,0.00,,,0.02,Weather View 32 v70,2013-02-06 14:10:00,
2013-02-06 09:20:00,58.2,56.2,30.14,South,169,0.0,3.0,93,0.00,,,0.02,Weather View 32 v70,2013-02-06 14:20:00,
2013-02-06 09:30:00,58.6,56.3,30.14,South,169,0.0,3.0,92,0.00,,,0.02,Weather View 32 v70,2013-02-06 14:30:00,
2013-02-06 09:40:00,58.8,56.8,30.15,South,169,0.0,3.0,93,0.00,,,0.02,Weather View 32 v70,2013-02-06 14:40:00,
2013-02-06 09:50:00,59.0,56.7,30.14,East,94,1.0,3.0,92,0.01,,,0.03,Weather View 32 v70,2013-02-06 14:50:00,
2013-02-06 09:51:00,59.0,56.7,30.14,East,94,1.0,3.0,92,0.01,,,0.03,Weather View 32 v70,2013-02-06 14:51:00,
2013-02-06 10:00:00,59.2,57.2,30.14,ESE,111,1.0,6.0,93,0.01,,,0.03,Weather View 32 v70,2013-02-06 15:00:00,
2013-02-06 10:10:00,59.3,57.3,30.14,East,85,0.0,6.0,93,0.01,,,0.03,Weather View 32 v70,2013-02-06 15:10:00,
2013-02-06 10:20:00,59.5,57.5,30.15,ESE,111,3.0,6.0,93,0.01,,,0.03,Weather View 32 v70,2013-02-06 15:20:00,
2013-02-06 10:30:00,59.8,57.8,30.15,ENE,75,3.0,6.0,93,0.01,,,0.03,Weather View 32 v70,2013-02-06 15:30:00,
2013-02-06 10:40:00,60.0,57.7,30.15,East,98,3.0,6.0,92,0.01,,,0.03,Weather View 32 v70,2013-02-06 15:40:00,
2013-02-06 10:50:00,60.4,58.4,30.14,East,101,2.0,6.0,93,0.00,,,0.03,Weather View 32 v70,2013-02-06 15:50:00,
2013-02-06 10:52:00,60.4,58.4,30.14,East,101,2.0,6.0,93,0.00,,,0.03,Weather View 32 v70,2013-02-06 15:52:00,
2013-02-06 11:00:00,60.8,58.5,30.14,East,100,0.0,6.0,92,0.00,,,0.03,Weather View 32 v70,2013-02-06 16:00:00,
2013-02-06 11:10:00,61.1,58.4,30.14,East,95,0.0,6.0,91,0.00,,,0.03,Weather View 32 v70,2013-02-06 16:10:00,
2013-02-06 11:20:00,61.6,58.3,30.14,SSE,157,1.0,6.0,89,0.00,,,0.03,Weather View 32 v70,2013-02-06 16:20:00,
2013-02-06 11:30:00,62.0,58.4,30.14,SSE,152,2.0,6.0,88,0.00,,,0.03,Weather View 32 v70,2013-02-06 16:30:00,
2013-02-06 11:40:00,62.3,58.7,30.13,ESE,111,4.0,7.0,88,0.00,,,0.03,Weather View 32 v70,2013-02-06 16:40:00,
2013-02-06 11:50:00,62.6,59.0,30.13,SE,126,5.0,9.0,88,0.00,,,0.03,Weather View 32 v70,2013-02-06 16:50:00,
2013-02-06 12:00:00,63.0,59.1,30.13,SE,133,2.0,9.0,87,0.00,,,0.03,Weather View 32 v70,2013-02-06 17:00:00,
2013-02-06 12:10:00,63.2,59.3,30.13,ESE,103,0.0,10.0,87,0.00,,,0.03,Weather View 32 v70,2013-02-06 17:10:00,
2013-02-06 12:20:00,63.1,59.2,30.13,SE,128,5.0,10.0,87,0.00,,,0.03,Weather View 32 v70,2013-02-06 17:20:00,
2013-02-06 12:30:00,63.2,59.3,30.13,ESE,106,0.0,10.0,87,0.00,,,0.03,Weather View 32 v70,2013-02-06 17:30:00,
2013-02-06 12:40:00,63.4,59.1,30.12,ESE,106,1.0,10.0,86,0.00,,,0.03,Weather View 32 v70,2013-02-06 17:40:00,
2013-02-06 12:50:00,63.6,59.3,30.12,SE,141,5.0,10.0,86,0.00,,,0.03,Weather View 32 v70,2013-02-06 17:50:00,
2013-02-06 12:53:00,63.6,59.3,30.12,SE,141,5.0,10.0,86,0.00,,,0.03,Weather View 32 v70,2013-02-06 17:53:00,
2013-02-06 13:00:00,63.6,59.0,30.11,SE,135,6.0,10.0,85,0.00,,,0.03,Weather View 32 v70,2013-02-06 18:00:00,
2013-02-06 13:10:00,63.9,59.6,30.11,SSE,163,3.0,8.0,86,0.00,,,0.03,Weather View 32 v70,2013-02-06 18:10:00,
2013-02-06 13:20:00,64.1,59.5,30.11,SSE,166,2.0,8.0,85,0.00,,,0.03,Weather View 32 v70,2013-02-06 18:20:00,
2013-02-06 13:30:00,64.2,59.2,30.10,SSE,154,2.0,8.0,84,0.00,,,0.03,Weather View 32 v70,2013-02-06 18:30:00,
2013-02-06 13:40:00,64.3,59.3,30.10,South,169,1.0,8.0,84,0.00,,,0.03,Weather View 32 v70,2013-02-06 18:40:00,
2013-02-06 13:50:00,64.3,59.3,30.09,SSE,154,4.0,8.0,84,0.00,,,0.03,Weather View 32 v70,2013-02-06 18:50:00,
2013-02-06 13:54:00,64.3,59.3,30.09,SSE,154,4.0,8.0,84,0.00,,,0.03,Weather View 32 v70,2013-02-06 18:54:00,
2013-02-06 14:00:00,64.2,59.6,30.09,SE,143,3.0,7.0,85,0.00,,,0.03,Weather View 32 v70,2013-02-06 19:00:00,
2013-02-06 14:10:00,64.4,59.8,30.09,SSE,149,4.0,7.0,85,0.00,,,0.03,Weather View 32 v70,2013-02-06 19:10:00,
2013-02-06 14:20:00,64.7,59.7,30.09,SSE,151,4.0,7.0,84,0.00,,,0.03,Weather View 32 v70,2013-02-06 19:20:00,
2013-02-06 14:30:00,64.8,59.8,30.08,ESE,116,4.0,7.0,84,0.00,,,0.03,Weather View 32 v70,2013-02-06 19:30:00,
2013-02-06 14:40:00,65.1,59.8,30.08,SSE,152,2.0,7.0,83,0.00,,,0.03,Weather View 32 v70,2013-02-06 19:40:00,
2013-02-06 14:50:00,65.3,59.6,30.08,ESE,118,2.0,7.0,82,0.00,,,0.03,Weather View 32 v70,2013-02-06 19:50:00,
2013-02-06 15:00:00,65.5,59.5,30.08,ESE,113,4.0,7.0,81,0.00,,,0.03,Weather View 32 v70,2013-02-06 20:00:00,
2013-02-06 15:10:00,65.8,59.8,30.08,ESE,115,0.0,7.0,81,0.00,,,0.03,Weather View 32 v70,2013-02-06 20:10:00,
2013-02-06 15:20:00,66.2,60.2,30.08,East,86,2.0,7.0,81,0.00,,,0.03,Weather View 32 v70,2013-02-06 20:20:00,
2013-02-06 15:30:00,66.3,60.3,30.08,ESE,107,1.0,7.0,81,0.00,,,0.03,Weather View 32 v70,2013-02-06 20:30:00,
2013-02-06 15:40:00,66.4,60.0,30.08,ESE,111,1.0,7.0,80,0.00,,,0.03,Weather View 32 v70,2013-02-06 20:40:00,
2013-02-06 15:50:00,66.5,60.1,30.08,ESE,118,4.0,7.0,80,0.00,,,0.03,Weather View 32 v70,2013-02-06 20:50:00,
2013-02-06 15:55:00,66.5,60.1,30.08,ESE,118,4.0,7.0,80,0.00,,,0.03,Weather View 32 v70,2013-02-06 20:55:00,
2013-02-06 16:00:00,66.3,59.9,30.09,SSE,154,1.0,7.0,80,0.00,,,0.03,Weather View 32 v70,2013-02-06 21:00:00,
2013-02-06 16:10:00,66.3,59.9,30.09,ESE,115,2.0,7.0,80,0.00,,,0.03,Weather View 32 v70,2013-02-06 21:10:00,
2013-02-06 16:20:00,66.4,60.0,30.09,SE,127,2.0,7.0,80,0.00,,,0.03,Weather View 32 v70,2013-02-06 21:20:00,
2013-02-06 16:30:00,66.5,60.5,30.08,ESE,121,4.0,7.0,81,0.00,,,0.03,Weather View 32 v70,2013-02-06 21:30:00,
2013-02-06 16:40:00,66.5,60.5,30.08,ESE,107,3.0,8.0,81,0.00,,,0.03,Weather View 32 v70,2013-02-06 21:40:00,
2013-02-06 16:50:00,66.4,60.4,30.09,SE,136,5.0,8.0,81,0.00,,,0.03,Weather View 32 v70,2013-02-06 21:50:00,
2013-02-06 16:56:00,66.4,60.4,30.09,SE,136,5.0,8.0,81,0.00,,,0.03,Weather View 32 v70,2013-02-06 21:56:00,
2013-02-06 17:00:00,66.2,60.2,30.09,ESE,108,2.0,8.0,81,0.00,,,0.03,Weather View 32 v70,2013-02-06 22:00:00,
2013-02-06 17:10:00,66.2,60.2,30.09,ESE,111,3.0,8.0,81,0.00,,,0.03,Weather View 32 v70,2013-02-06 22:10:00,
2013-02-06 17:20:00,66.1,60.1,30.09,ESE,123,4.0,8.0,81,0.00,,,0.03,Weather View 32 v70,2013-02-06 22:20:00,
2013-02-06 17:30:00,66.0,60.3,30.09,ESE,122,2.0,8.0,82,0.00,,,0.03,Weather View 32 v70,2013-02-06 22:30:00,
2013-02-06 17:40:00,65.8,60.1,30.09,ESE,123,3.0,7.0,82,0.00,,,0.03,Weather View 32 v70,2013-02-06 22:40:00,
2013-02-06 17:50:00,65.6,59.9,30.09,ESE,111,2.0,7.0,82,0.00,,,0.03,Weather View 32 v70,2013-02-06 22:50:00,
2013-02-06 17:56:00,65.6,59.9,30.09,ESE,111,2.0,7.0,82,0.00,,,0.03,Weather View 32 v70,2013-02-06 22:56:00,
2013-02-06 18:10:00,65.2,59.2,30.09,ESE,109,3.0,7.0,81,0.00,,,0.03,Weather View 32 v70,2013-02-06 23:10:00,
2013-02-06 18:20:00,65.1,59.5,30.09,SE,126,2.0,6.0,82,0.00,,,0.03,Weather View 32 v70,2013-02-06 23:20:00,
2013-02-06 18:30:00,64.8,59.2,30.09,SE,132,4.0,6.0,82,0.00,,,0.03,Weather View 32 v70,2013-02-06 23:30:00,
2013-02-06 18:40:00,64.6,59.0,30.09,ESE,103,1.0,5.0,82,0.00,,,0.03,Weather View 32 v70,2013-02-06 23:40:00,
2013-02-06 18:50:00,64.2,58.9,30.09,ESE,107,2.0,5.0,83,0.00,,,0.03,Weather View 32 v70,2013-02-06 23:50:00,
2013-02-06 18:57:00,64.2,58.9,30.09,ESE,107,2.0,5.0,83,0.00,,,0.03,Weather View 32 v70,2013-02-06 23:57:00,
2013-02-06 19:00:00,63.8,58.5,30.09,ESE,103,1.0,5.0,83,0.00,,,0.03,Weather View 32 v70,2013-02-07 00:00:00,
2013-02-06 19:10:00,63.3,58.4,30.09,East,100,3.0,5.0,84,0.00,,,0.03,Weather View 32 v70,2013-02-07 00:10:00,
2013-02-06 19:20:00,63.0,58.4,30.10,East,96,0.0,5.0,85,0.00,,,0.03,Weather View 32 v70,2013-02-07 00:20:00,
2013-02-06 19:30:00,62.8,58.5,30.10,East,92,0.0,5.0,86,0.00,,,0.03,Weather View 32 v70,2013-02-07 00:30:00,
2013-02-06 19:40:00,62.6,58.7,30.10,ESE,105,2.0,5.0,87,0.00,,,0.03,Weather View 32 v70,2013-02-07 00:40:00,
2013-02-06 19:50:00,62.4,58.5,30.10,East,100,2.0,5.0,87,0.00,,,0.03,Weather View 32 v70,2013-02-07 00:50:00,
2013-02-06 19:57:00,62.4,58.5,30.10,East,100,2.0,5.0,87,0.00,,,0.03,Weather View 32 v70,2013-02-07 00:57:00,
2013-02-06 20:00:00,62.3,58.4,30.10,ESE,103,4.0,6.0,87,0.00,,,0.03,Weather View 32 v70,2013-02-07 01:00:00,
2013-02-06 20:10:00,62.2,57.9,30.10,SE,125,3.0,9.0,86,0.00,,,0.03,Weather View 32 v70,2013-02-07 01:10:00,
2013-02-06 20:20:00,62.2,57.6,30.10,ESE,123,2.0,9.0,85,0.00,,,0.03,Weather View 32 v70,2013-02-07 01:20:00,
2013-02-06 20:30:00,62.1,57.5,30.10,ESE,112,3.0,9.0,85,0.00,,,0.03,Weather View 32 v70,2013-02-07 01:30:00,
2013-02-06 20:40:00,62.1,57.5,30.11,ESE,107,0.0,9.0,85,0.00,,,0.03,Weather View 32 v70,2013-02-07 01:40:00,
2013-02-06 20:50:00,62.2,57.3,30.11,SE,144,2.0,9.0,84,0.00,,,0.03,Weather View 32 v70,2013-02-07 01:50:00,
2013-02-06 20:58:00,62.2,57.3,30.11,SE,144,2.0,9.0,84,0.00,,,0.03,Weather View 32 v70,2013-02-07 01:58:00,
2013-02-06 21:10:00,62.2,57.3,30.11,East,101,0.0,7.0,84,0.00,,,0.03,Weather View 32 v70,2013-02-07 02:10:00,
2013-02-06 21:20:00,62.2,57.3,30.11,SE,132,0.0,5.0,84,0.00,,,0.03,Weather View 32 v70,2013-02-07 02:20:00,
2013-02-06 21:30:00,62.3,57.4,30.11,SE,136,2.0,5.0,84,0.00,,,0.03,Weather View 32 v70,2013-02-07 02:30:00,
2013-02-06 21:40:00,62.3,57.4,30.11,ESE,117,1.0,5.0,84,0.00,,,0.03,Weather View 32 v70,2013-02-07 02:40:00,
2013-02-06 21:50:00,62.4,57.5,30.11,SE,140,0.0,4.0,84,0.00,,,0.03,Weather View 32 v70,2013-02-07 02:50:00,
2013-02-06 21:59:00,62.4,57.5,30.11,SE,140,0.0,4.0,84,0.00,,,0.03,Weather View 32 v70,2013-02-07 02:59:00,
2013-02-06 22:00:00,62.3,57.4,30.11,SE,140,0.0,4.0,84,0.00,,,0.03,Weather View 32 v70,2013-02-07 03:00:00,
2013-02-06 22:10:00,62.3,57.7,30.11,SE,134,0.0,4.0,85,0.00,,,0.03,Weather View 32 v70,2013-02-07 03:10:00,
2013-02-06 22:20:00,62.3,57.7,30.11,SE,134,0.0,4.0,85,0.00,,,0.03,Weather View 32 v70,2013-02-07 03:20:00,
2013-02-06 22:30:00,62.1,57.6,30.11,ESE,117,1.0,4.0,85,0.00,,,0.03,Weather View 32 v70,2013-02-07 03:30:00,
2013-02-06 22:40:00,62.2,57.6,30.11,ESE,103,1.0,4.0,85,0.00,,,0.03,Weather View 32 v70,2013-02-07 03:40:00,
2013-02-06 22:50:00,62.3,57.7,30.11,East,82,0.0,2.0,85,0.00,,,0.03,Weather View 32 v70,2013-02-07 03:50:00,
2013-02-06 22:59:00,62.3,57.7,30.11,East,82,0.0,2.0,85,0.00,,,0.03,Weather View 32 v70,2013-02-07 03:59:00,
2013-02-06 23:00:00,62.3,57.7,30.11,East,96,0.0,3.0,85,0.00,,,0.03,Weather View 32 v70,2013-02-07 04:00:00,
2013-02-06 23:10:00,62.4,58.1,30.10,East,98,2.0,3.0,86,0.00,,,0.03,Weather View 32 v70,2013-02-07 04:10:00,
2013-02-06 23:20:00,62.4,58.1,30.11,East,90,0.0,5.0,86,0.00,,,0.03,Weather View 32 v70,2013-02-07 04:20:00,
2013-02-06 23:30:00,62.3,58.0,30.11,ENE,69,0.0,5.0,86,0.00,,,0.03,Weather View 32 v70,2013-02-07 04:30:00,
2013-02-06 23:40:00,62.2,57.9,30.10,ENE,69,0.0,5.0,86,0.00,,,0.03,Weather View 32 v70,2013-02-07 04:40:00,
2013-02-06 23:50:00,62.1,57.8,30.10,East,88,0.0,5.0,86,0.00,,,0.03,Weather View 32 v70,2013-02-07 04:50:00,